Weather in Gari

Russia / Ivanovo Oblast     56°55′23″N   39°41′12″E
temp.,
°C
wind,
m/s
gust,
m/s
humid.,
%
clouds,
%
prec.,
mm/h
press.,
hPa
HPBL,
m
13 august, sat
sat1300:00+16w347357 0.0 102342
03:00+15nw22828 0.0 102322
06:00+15nw22805 0.0 102326
09:00+21nw1259100 0.0 1023401
12:00+25wnw2248100 0.0 10221328
15:00+26wnw1143100 0.0 10211728
18:00+26wsw1152100 0.0 102158
21:00+20wsw2261100 0.0 102112
14 august, sun
sun1400:00+19wnw2268100 0.0 102116
03:00+18sw1172100 0.0 102116
06:00+18sw1273100 0.0 102124
09:00+23s1156100 0.0 1021335
12:00+27ese224450 0.0 10211816
15:00+28se013657 0.0 10202353
18:00+26nne2346100 0.0 101963
21:00+23e3353100 0.0 102062
15 august, mon
mon1500:00+22ese365591 0.0 1020126
03:00+21se2459100 0.0 102172
06:00+20ese3462100 0.0 102295
09:00+22ese355955 0.0 1022283
12:00+28se344129 0.0 10221623
15:00+29se3334100 0.0 10212373
18:00+25sse3548100 0.0 1022163
21:00+21ese3456100 0.0 102370
16 august, tue
tue1600:00+20ese3762100 0.0 1023129
03:00+19se366586 0.0 102499
06:00+19se356298 0.0 1025142
09:00+23se3451100 0.0 1025414
12:00+26se454376 0.0 10241179
15:00+28e463433 0.0 10232566
18:00+27ese47385 0.0 1023541
21:00+21ese485133 0.0 1023151
17 august, wed
wed1700:00+21ese375799 0.0 1023169
03:00+18se356610 0.0 102379
06:00+17se34690 0.0 102477
09:00+23se46490 0.0 1023519
12:00+27ese55390 0.0 10221894
15:00+28ese44340 0.0 10212265
18:00+27e45380 0.0 1020517
21:00+20e48570 0.0 1021116